Year,Month,Day,Hour,Minute,Value (Times are PST for windspeed in km/hr)
2011,09,26,00,00,1.00
2011,09,26,00,01,1.60
2011,09,26,00,02,0.10
2011,09,26,00,03,0.00
2011,09,26,00,04,0.00
2011,09,26,00,05,0.00
2011,09,26,00,06,0.00
2011,09,26,00,07,0.00
2011,09,26,00,08,0.00
2011,09,26,00,09,0.00
2011,09,26,00,10,0.00
2011,09,26,00,11,0.20
2011,09,26,00,12,0.00
2011,09,26,00,13,0.00
2011,09,26,00,14,0.00
2011,09,26,00,15,0.00
2011,09,26,00,16,0.00
2011,09,26,00,17,0.00
2011,09,26,00,18,0.00
2011,09,26,00,19,0.00
2011,09,26,00,20,0.00
2011,09,26,00,21,0.00
2011,09,26,00,22,0.00
2011,09,26,00,23,0.00
2011,09,26,00,24,0.00
2011,09,26,00,25,0.00
2011,09,26,00,26,0.00
2011,09,26,00,27,0.00
2011,09,26,00,28,0.00
2011,09,26,00,29,0.00
2011,09,26,00,30,0.00
2011,09,26,00,31,0.00
2011,09,26,00,32,0.00
2011,09,26,00,33,0.00
2011,09,26,00,34,0.00
2011,09,26,00,35,0.00
2011,09,26,00,36,0.00
2011,09,26,00,37,0.00
2011,09,26,00,38,0.00
2011,09,26,00,39,0.00
2011,09,26,00,40,0.00
2011,09,26,00,41,0.00
2011,09,26,00,42,0.00
2011,09,26,00,43,0.00
2011,09,26,00,44,0.00
2011,09,26,00,45,0.00
2011,09,26,00,46,0.00
2011,09,26,00,47,0.00
2011,09,26,00,48,0.00
2011,09,26,00,49,0.00
2011,09,26,00,50,0.00
2011,09,26,00,51,0.00
2011,09,26,00,52,0.00
2011,09,26,00,53,0.00
2011,09,26,00,54,0.50
2011,09,26,00,55,0.50
2011,09,26,00,56,0.10
2011,09,26,00,57,0.30
2011,09,26,00,58,0.30
2011,09,26,00,59,0.30
2011,09,26,01,00,0.60
2011,09,26,01,01,1.40
2011,09,26,01,02,0.20
2011,09,26,01,03,0.00
2011,09,26,01,04,1.00
2011,09,26,01,05,1.60
2011,09,26,01,06,0.50
2011,09,26,01,07,1.40
2011,09,26,01,08,1.90
2011,09,26,01,09,0.40
2011,09,26,01,10,0.70
2011,09,26,01,11,0.10
2011,09,26,01,12,1.40
2011,09,26,01,13,0.90
2011,09,26,01,14,0.00
2011,09,26,01,15,0.00
2011,09,26,01,16,2.20
2011,09,26,01,17,0.20
2011,09,26,01,18,0.00
2011,09,26,01,19,0.00
2011,09,26,01,20,0.30
2011,09,26,01,21,0.30
2011,09,26,01,22,0.10
2011,09,26,01,23,1.30
2011,09,26,01,24,0.20
2011,09,26,01,25,0.00
2011,09,26,01,26,0.20
2011,09,26,01,27,1.10
2011,09,26,01,28,0.50
2011,09,26,01,29,0.10
2011,09,26,01,30,0.00
2011,09,26,01,31,1.90
2011,09,26,01,32,0.20
2011,09,26,01,33,0.90
2011,09,26,01,34,1.40
2011,09,26,01,35,0.10
2011,09,26,01,36,0.10
2011,09,26,01,37,0.50
2011,09,26,01,38,1.30
2011,09,26,01,39,3.50
2011,09,26,01,40,0.20
2011,09,26,01,41,0.10
2011,09,26,01,42,3.00
2011,09,26,01,43,0.20
2011,09,26,01,44,0.30
2011,09,26,01,45,1.80
2011,09,26,01,46,2.40
2011,09,26,01,47,1.40
2011,09,26,01,48,0.50
2011,09,26,01,49,0.20
2011,09,26,01,50,0.60
2011,09,26,01,51,0.00
2011,09,26,01,52,0.10
2011,09,26,01,53,0.30
2011,09,26,01,54,1.10
2011,09,26,01,55,3.40
2011,09,26,01,56,0.00
2011,09,26,01,57,1.00
2011,09,26,01,58,0.00
2011,09,26,01,59,0.00
2011,09,26,02,00,0.00
2011,09,26,02,01,0.60
2011,09,26,02,02,0.20
2011,09,26,02,03,0.80
2011,09,26,02,04,0.00
2011,09,26,02,05,0.30
2011,09,26,02,06,2.00
2011,09,26,02,07,0.20
2011,09,26,02,08,0.00
2011,09,26,02,09,0.00
2011,09,26,02,10,0.30
2011,09,26,02,11,1.00
2011,09,26,02,12,1.40
2011,09,26,02,13,0.80
2011,09,26,02,14,2.60
2011,09,26,02,15,0.00
2011,09,26,02,16,2.30
2011,09,26,02,17,0.40
2011,09,26,02,18,3.50
2011,09,26,02,19,1.70
2011,09,26,02,20,3.00
2011,09,26,02,21,0.10
2011,09,26,02,22,1.30
2011,09,26,02,23,0.10
2011,09,26,02,24,1.10
2011,09,26,02,25,0.90
2011,09,26,02,26,0.00
2011,09,26,02,27,0.50
2011,09,26,02,28,0.00
2011,09,26,02,29,0.10
2011,09,26,02,30,0.30
2011,09,26,02,31,1.80
2011,09,26,02,32,0.70
2011,09,26,02,33,1.10
2011,09,26,02,34,2.40
2011,09,26,02,35,4.30
2011,09,26,02,36,0.60
2011,09,26,02,37,4.30
2011,09,26,02,38,1.60
2011,09,26,02,39,2.30
2011,09,26,02,40,3.00
2011,09,26,02,41,2.90
2011,09,26,02,42,1.70
2011,09,26,02,43,0.60
2011,09,26,02,44,0.60
2011,09,26,02,45,2.70
2011,09,26,02,46,0.80
2011,09,26,02,47,0.50
2011,09,26,02,48,0.20
2011,09,26,02,49,0.20
2011,09,26,02,50,0.00
2011,09,26,02,51,0.10
2011,09,26,02,52,0.40
2011,09,26,02,53,0.00
2011,09,26,02,54,0.70
2011,09,26,02,55,2.00
2011,09,26,02,56,0.30
2011,09,26,02,57,0.80
2011,09,26,02,58,1.10
2011,09,26,02,59,0.20
2011,09,26,03,00,0.00
2011,09,26,03,01,0.00
2011,09,26,03,02,0.00
2011,09,26,03,06,1.90
2011,09,26,03,07,1.00
2011,09,26,03,08,0.20
2011,09,26,03,09,0.00
2011,09,26,03,10,0.00
2011,09,26,03,11,0.60
2011,09,26,03,12,1.90
2011,09,26,03,13,1.90
2011,09,26,03,14,0.20
2011,09,26,03,15,0.60
2011,09,26,03,16,1.20
2011,09,26,03,17,1.10
2011,09,26,03,18,0.60
2011,09,26,03,19,1.90
2011,09,26,03,20,0.10
2011,09,26,03,21,0.10
2011,09,26,03,22,3.10
2011,09,26,03,23,1.00
2011,09,26,03,24,1.20
2011,09,26,03,25,2.40
2011,09,26,03,26,1.30
2011,09,26,03,27,4.30
2011,09,26,03,28,3.80
2011,09,26,03,29,3.00
2011,09,26,03,30,3.80
2011,09,26,03,31,3.20
2011,09,26,03,32,0.80
2011,09,26,03,33,2.30
2011,09,26,03,34,7.30
2011,09,26,03,35,2.30
2011,09,26,03,36,4.20
2011,09,26,03,37,5.70
2011,09,26,03,38,4.10
2011,09,26,03,39,1.40
2011,09,26,03,40,2.60
2011,09,26,03,41,4.00
2011,09,26,03,42,3.70
2011,09,26,03,43,0.30
2011,09,26,03,44,1.50
2011,09,26,03,45,4.50
2011,09,26,03,46,2.00
2011,09,26,03,47,2.10
2011,09,26,03,48,0.30
2011,09,26,03,49,2.00
2011,09,26,03,50,5.40
2011,09,26,03,51,2.50
2011,09,26,03,52,6.70
2011,09,26,03,53,7.80
2011,09,26,03,54,4.90
2011,09,26,03,55,2.30
2011,09,26,03,56,1.80
2011,09,26,03,57,3.00
2011,09,26,03,58,3.50
2011,09,26,03,59,6.30
2011,09,26,04,00,1.50
2011,09,26,04,01,4.10
2011,09,26,04,02,1.00
2011,09,26,04,03,1.70
2011,09,26,04,04,4.00
2011,09,26,04,05,4.70
2011,09,26,04,06,4.60
2011,09,26,04,07,4.70
2011,09,26,04,08,4.60
2011,09,26,04,09,1.70
2011,09,26,04,10,2.10
2011,09,26,04,11,4.00
2011,09,26,04,12,3.10
2011,09,26,04,13,1.00
2011,09,26,04,14,1.00
2011,09,26,04,15,3.10
2011,09,26,04,16,2.20
2011,09,26,04,17,4.00
2011,09,26,04,18,1.90
2011,09,26,04,19,5.60
2011,09,26,04,20,3.40
2011,09,26,04,21,6.20
2011,09,26,04,22,4.00
2011,09,26,04,23,5.20
2011,09,26,04,24,4.90
2011,09,26,04,25,1.20
2011,09,26,04,26,0.60
2011,09,26,04,27,3.90
2011,09,26,04,28,5.50
2011,09,26,04,29,2.60
2011,09,26,04,30,2.80
2011,09,26,04,31,3.50
2011,09,26,04,32,2.70
2011,09,26,04,33,2.30
2011,09,26,04,34,3.10
2011,09,26,04,35,2.40
2011,09,26,04,36,1.30
2011,09,26,04,37,3.60
2011,09,26,04,38,3.60
2011,09,26,04,39,1.90
2011,09,26,04,40,1.00
2011,09,26,04,41,4.30
2011,09,26,04,42,5.30
2011,09,26,04,43,2.70
2011,09,26,04,44,1.10
2011,09,26,04,45,3.50
2011,09,26,04,46,5.50
2011,09,26,04,47,4.30
2011,09,26,04,48,2.70
2011,09,26,04,49,6.60
2011,09,26,04,50,6.30
2011,09,26,04,51,2.10
2011,09,26,04,52,2.10
2011,09,26,04,53,2.50
2011,09,26,04,54,2.90
2011,09,26,04,55,3.10
2011,09,26,04,56,5.00
2011,09,26,04,57,3.50
2011,09,26,04,58,2.50
2011,09,26,04,59,3.50
2011,09,26,05,00,1.90
2011,09,26,05,01,1.00
2011,09,26,05,02,2.10
2011,09,26,05,03,1.90
2011,09,26,05,04,3.40
2011,09,26,05,05,1.20
2011,09,26,05,06,0.60
2011,09,26,05,07,3.40
2011,09,26,05,08,7.40
2011,09,26,05,09,3.70
2011,09,26,05,10,0.20
2011,09,26,05,11,1.40
2011,09,26,05,12,1.50
2011,09,26,05,13,6.40
2011,09,26,05,14,3.20
2011,09,26,05,15,4.10
2011,09,26,05,16,1.40
2011,09,26,05,17,1.90
2011,09,26,05,18,3.30
2011,09,26,05,19,5.60
2011,09,26,05,20,3.60
2011,09,26,05,21,1.20
2011,09,26,05,22,2.70
2011,09,26,05,23,0.80
2011,09,26,05,24,4.40
2011,09,26,05,25,0.60
2011,09,26,05,26,1.90
2011,09,26,05,27,1.60
2011,09,26,05,28,0.80
2011,09,26,05,29,1.90
2011,09,26,05,30,0.40
2011,09,26,05,31,0.30
2011,09,26,05,32,0.80
2011,09,26,05,33,1.60
2011,09,26,05,34,2.80
2011,09,26,05,35,0.50
2011,09,26,05,36,3.80
2011,09,26,05,37,3.90
2011,09,26,05,38,2.80
2011,09,26,05,39,0.20
2011,09,26,05,40,0.40
2011,09,26,05,41,1.30
2011,09,26,05,42,3.90
2011,09,26,05,43,1.50
2011,09,26,05,44,2.10
2011,09,26,05,45,1.40
2011,09,26,05,46,0.70
2011,09,26,05,47,3.60
2011,09,26,05,48,3.90
2011,09,26,05,49,2.90
2011,09,26,05,50,8.70
2011,09,26,05,51,2.70
2011,09,26,05,52,3.40
2011,09,26,05,53,3.60
2011,09,26,05,54,1.40
2011,09,26,05,55,4.30
2011,09,26,05,56,2.30
2011,09,26,05,57,2.90
2011,09,26,05,58,4.70
2011,09,26,05,59,2.00
2011,09,26,06,00,3.40
2011,09,26,06,01,5.30
2011,09,26,06,02,5.20
2011,09,26,06,03,3.30
2011,09,26,06,04,4.30
2011,09,26,06,05,4.20
2011,09,26,06,06,3.30
2011,09,26,06,07,3.10
2011,09,26,06,08,5.50
2011,09,26,06,09,1.60
2011,09,26,06,10,2.70
2011,09,26,06,11,6.50
2011,09,26,06,12,7.00
2011,09,26,06,13,5.50
2011,09,26,06,14,8.20
2011,09,26,06,15,2.00
2011,09,26,06,16,7.10
2011,09,26,06,17,6.00
2011,09,26,06,18,4.90
2011,09,26,06,19,1.20
2011,09,26,06,20,4.00
2011,09,26,06,21,5.50
2011,09,26,06,22,4.60
2011,09,26,06,23,3.20
2011,09,26,06,24,3.20
2011,09,26,06,25,3.50
2011,09,26,06,26,5.20
2011,09,26,06,27,6.10
2011,09,26,06,28,4.70
2011,09,26,06,29,1.00
2011,09,26,06,30,1.20
2011,09,26,06,31,3.60
2011,09,26,06,32,7.50
2011,09,26,06,33,3.90
2011,09,26,06,34,2.80
2011,09,26,06,35,3.60
2011,09,26,06,36,2.60
2011,09,26,06,37,1.80
2011,09,26,06,38,5.20
2011,09,26,06,39,2.30
2011,09,26,06,40,6.40
2011,09,26,06,41,4.80
2011,09,26,06,42,3.50
2011,09,26,06,43,4.60
2011,09,26,06,44,4.50
2011,09,26,06,45,1.90
2011,09,26,06,46,5.90
2011,09,26,06,47,6.00
2011,09,26,06,48,4.70
2011,09,26,06,49,1.70
2011,09,26,06,50,2.30
2011,09,26,06,51,2.20
2011,09,26,06,52,2.30
2011,09,26,06,53,6.90
2011,09,26,06,54,4.70
2011,09,26,06,55,2.50
2011,09,26,06,56,4.70
2011,09,26,06,57,3.70
2011,09,26,06,58,6.40
2011,09,26,06,59,9.40
2011,09,26,07,00,6.90
2011,09,26,07,01,4.50
2011,09,26,07,02,2.20
2011,09,26,07,03,2.80
2011,09,26,07,04,6.00
2011,09,26,07,05,4.10
2011,09,26,07,06,10.60
2011,09,26,07,07,6.60
2011,09,26,07,08,5.90
2011,09,26,07,09,3.90
2011,09,26,07,10,3.90
2011,09,26,07,11,2.20
2011,09,26,07,12,3.90
2011,09,26,07,13,3.50
2011,09,26,07,14,3.30
2011,09,26,07,15,5.90
2011,09,26,07,16,3.80
2011,09,26,07,17,3.40
2011,09,26,07,18,4.70
2011,09,26,07,19,4.00
2011,09,26,07,20,5.30
2011,09,26,07,21,3.90
2011,09,26,07,22,4.70
2011,09,26,07,23,3.60
2011,09,26,07,24,1.20
2011,09,26,07,25,1.20
2011,09,26,07,26,7.00
2011,09,26,07,27,8.50
2011,09,26,07,28,4.50
2011,09,26,07,29,5.50
2011,09,26,07,30,4.70
2011,09,26,07,31,0.60
2011,09,26,07,32,5.60
2011,09,26,07,33,4.70
2011,09,26,07,34,5.60
2011,09,26,07,35,1.50
2011,09,26,07,36,2.80
2011,09,26,07,37,4.70
2011,09,26,07,38,3.60
2011,09,26,07,39,4.90
2011,09,26,07,40,2.40
2011,09,26,07,41,5.00
2011,09,26,07,42,3.80
2011,09,26,07,43,3.80
2011,09,26,07,44,5.70
2011,09,26,07,45,5.70
2011,09,26,07,46,4.00
2011,09,26,07,47,4.70
2011,09,26,07,48,2.20
2011,09,26,07,49,2.50
2011,09,26,07,50,2.90
2011,09,26,07,51,4.10
2011,09,26,07,52,3.10
2011,09,26,07,53,3.10
2011,09,26,07,54,2.80
2011,09,26,07,55,5.60
2011,09,26,07,56,2.60
2011,09,26,07,57,4.30
2011,09,26,07,58,0.60
2011,09,26,07,59,3.60
2011,09,26,08,00,2.60
2011,09,26,08,01,1.80
2011,09,26,08,02,3.10
2011,09,26,08,03,1.70
2011,09,26,08,04,3.20
2011,09,26,08,05,6.00
2011,09,26,08,06,5.10
2011,09,26,08,07,7.60
2011,09,26,08,08,0.50
2011,09,26,08,09,0.90
2011,09,26,08,10,2.70
2011,09,26,08,11,1.70
2011,09,26,08,12,1.90
2011,09,26,08,13,2.70
2011,09,26,08,14,6.00
2011,09,26,08,15,4.60
2011,09,26,08,16,8.10
2011,09,26,08,17,5.20
2011,09,26,08,18,7.60
2011,09,26,08,19,6.70
2011,09,26,08,20,2.50
2011,09,26,08,21,6.80
2011,09,26,08,22,4.70
2011,09,26,08,23,3.00
2011,09,26,08,24,1.20
2011,09,26,08,25,6.90
2011,09,26,08,26,1.30
2011,09,26,08,27,5.60
2011,09,26,08,28,4.50
2011,09,26,08,29,7.50
2011,09,26,08,30,8.20
2011,09,26,08,31,5.10
2011,09,26,08,32,3.60
2011,09,26,08,33,2.80
2011,09,26,08,34,5.00
2011,09,26,08,35,1.70
2011,09,26,08,36,2.70
2011,09,26,08,37,4.00
2011,09,26,08,38,4.50
2011,09,26,08,39,6.00
2011,09,26,08,40,5.60
2011,09,26,08,41,9.30
2011,09,26,08,42,6.20
2011,09,26,08,43,5.20
2011,09,26,08,44,7.90
2011,09,26,08,45,8.00
2011,09,26,08,46,4.20
2011,09,26,08,47,5.60
2011,09,26,08,48,1.70
2011,09,26,08,49,14.00
2011,09,26,08,50,9.20
2011,09,26,08,51,9.70
2011,09,26,08,52,11.90
2011,09,26,08,53,8.10
2011,09,26,08,54,16.20
2011,09,26,08,55,4.90
2011,09,26,08,56,6.80
2011,09,26,08,57,10.90
2011,09,26,08,58,10.90
2011,09,26,08,59,5.20
2011,09,26,09,00,6.60
2011,09,26,09,01,12.60
2011,09,26,09,02,8.90
2011,09,26,09,03,6.40
2011,09,26,09,04,9.40
2011,09,26,09,05,12.70
2011,09,26,09,06,9.50
2011,09,26,09,07,13.80
2011,09,26,09,08,9.60
2011,09,26,09,09,7.50
2011,09,26,09,10,9.10
2011,09,26,09,11,6.60
2011,09,26,09,12,11.30
2011,09,26,09,13,7.70
2011,09,26,09,14,7.60
2011,09,26,09,15,6.90
2011,09,26,09,16,5.40
2011,09,26,09,17,11.60
2011,09,26,09,18,7.90
2011,09,26,09,19,3.60
2011,09,26,09,20,5.60
2011,09,26,09,21,10.40
2011,09,26,09,22,10.60
2011,09,26,09,23,11.20
2011,09,26,09,24,9.00
2011,09,26,09,25,10.10
2011,09,26,09,26,4.30
2011,09,26,09,27,8.70
2011,09,26,09,28,13.50
2011,09,26,09,29,12.50
2011,09,26,09,30,7.90
2011,09,26,09,31,10.50
2011,09,26,09,32,4.70
2011,09,26,09,33,9.30
2011,09,26,09,34,9.70
2011,09,26,09,35,7.40
2011,09,26,09,36,10.10
2011,09,26,09,37,6.40
2011,09,26,09,38,7.70
2011,09,26,09,39,9.50
2011,09,26,09,40,5.70
2011,09,26,09,41,10.10
2011,09,26,09,42,10.50
2011,09,26,09,43,8.80
2011,09,26,09,44,8.80
2011,09,26,09,45,18.10
2011,09,26,09,46,13.30
2011,09,26,09,47,10.90
2011,09,26,09,48,9.40
2011,09,26,09,49,10.00
2011,09,26,09,50,7.90
2011,09,26,09,51,5.50
2011,09,26,09,52,5.40
2011,09,26,09,53,4.30
2011,09,26,09,54,9.80
2011,09,26,09,55,10.60
2011,09,26,09,56,11.50
2011,09,26,09,57,5.20
2011,09,26,09,58,8.10
2011,09,26,09,59,5.30
2011,09,26,10,00,5.60
2011,09,26,10,01,6.80
2011,09,26,10,02,3.60
2011,09,26,10,03,4.00
2011,09,26,10,04,8.80
2011,09,26,10,05,7.30
2011,09,26,10,06,4.40
2011,09,26,10,07,7.70
2011,09,26,10,08,6.60
2011,09,26,10,09,10.20
2011,09,26,10,10,6.10
2011,09,26,10,11,7.60
2011,09,26,10,12,8.40
2011,09,26,10,13,6.00
2011,09,26,10,14,7.80
2011,09,26,10,15,5.30
2011,09,26,10,16,3.90
2011,09,26,10,17,4.30
2011,09,26,10,18,7.50
2011,09,26,10,19,10.00
2011,09,26,10,20,4.30
2011,09,26,10,21,4.70
2011,09,26,10,22,9.00
2011,09,26,10,23,8.70
2011,09,26,10,24,4.10
2011,09,26,10,25,8.00
2011,09,26,10,26,2.80
2011,09,26,10,27,5.90
2011,09,26,10,28,3.90
2011,09,26,10,29,8.30
2011,09,26,10,30,8.00
2011,09,26,10,31,6.40
2011,09,26,10,32,5.70
2011,09,26,10,33,5.60
2011,09,26,10,34,5.10
2011,09,26,10,35,5.40
2011,09,26,10,36,5.00
2011,09,26,10,37,7.40
2011,09,26,10,38,6.20
2011,09,26,10,39,4.90
2011,09,26,10,40,7.60
2011,09,26,10,41,6.30
2011,09,26,10,42,13.00
2011,09,26,10,43,3.10
2011,09,26,10,44,4.70
2011,09,26,10,45,7.20
2011,09,26,10,46,8.80
2011,09,26,10,47,9.90
2011,09,26,10,48,6.80
2011,09,26,10,49,7.00
2011,09,26,10,50,8.30
2011,09,26,10,51,10.40
2011,09,26,10,52,8.50
2011,09,26,10,53,7.30
2011,09,26,10,54,5.80
2011,09,26,10,55,7.60
2011,09,26,10,56,7.00
2011,09,26,10,57,5.20
2011,09,26,10,58,3.50
2011,09,26,10,59,5.00
2011,09,26,11,00,1.80
2011,09,26,11,01,6.90
2011,09,26,11,02,7.90
2011,09,26,11,03,10.80
2011,09,26,11,04,7.90
2011,09,26,11,05,8.50
2011,09,26,11,06,7.80
2011,09,26,11,07,9.30
2011,09,26,11,08,6.00
2011,09,26,11,09,9.20
2011,09,26,11,10,6.80
2011,09,26,11,11,8.30
2011,09,26,11,12,8.50
2011,09,26,11,13,6.90
2011,09,26,11,14,9.90
2011,09,26,11,15,9.50
2011,09,26,11,16,11.10
2011,09,26,11,17,14.10
2011,09,26,11,18,8.60
2011,09,26,11,19,8.30
2011,09,26,11,20,8.10
2011,09,26,11,21,12.60
2011,09,26,11,22,12.50
2011,09,26,11,23,9.90
2011,09,26,11,24,12.60
2011,09,26,11,25,5.50
2011,09,26,11,26,13.80
2011,09,26,11,27,8.30
2011,09,26,11,28,10.50
2011,09,26,11,29,16.10
2011,09,26,11,30,10.40
2011,09,26,11,31,5.90
2011,09,26,11,32,5.20
2011,09,26,11,33,5.10
2011,09,26,11,34,12.40
2011,09,26,11,35,9.40
2011,09,26,11,36,6.80
2011,09,26,11,37,6.70
2011,09,26,11,38,9.40
2011,09,26,11,39,8.70
2011,09,26,11,40,9.20
2011,09,26,11,41,5.70
2011,09,26,11,42,7.10
2011,09,26,11,43,13.50
2011,09,26,11,44,8.30
2011,09,26,11,45,9.20
2011,09,26,11,46,9.10
2011,09,26,11,47,13.90
2011,09,26,11,48,9.00
2011,09,26,11,49,6.80
2011,09,26,11,50,4.60
2011,09,26,11,51,5.90
2011,09,26,11,52,10.20
2011,09,26,11,53,6.80
2011,09,26,11,54,11.70
2011,09,26,11,55,5.00
2011,09,26,11,56,9.70
2011,09,26,11,57,6.50
2011,09,26,11,58,8.10
2011,09,26,11,59,11.30
2011,09,26,12,00,4.20
2011,09,26,12,01,2.00
2011,09,26,12,02,6.70
2011,09,26,12,03,11.70
2011,09,26,12,04,4.30
2011,09,26,12,05,5.50
2011,09,26,12,06,9.00
2011,09,26,12,07,4.60
2011,09,26,12,08,4.00
2011,09,26,12,09,6.80
2011,09,26,12,10,10.00
2011,09,26,12,11,7.70
2011,09,26,12,12,4.10
2011,09,26,12,13,6.40
2011,09,26,12,14,2.70
2011,09,26,12,15,10.80
2011,09,26,12,16,13.00
2011,09,26,12,17,13.00
2011,09,26,12,18,7.60
2011,09,26,12,19,4.80
2011,09,26,12,20,6.50
2011,09,26,12,21,8.90
2011,09,26,12,22,4.80
2011,09,26,12,23,4.20
2011,09,26,12,24,3.20
2011,09,26,12,25,8.60
2011,09,26,12,26,5.50
2011,09,26,12,27,14.60
2011,09,26,12,28,5.30
2011,09,26,12,29,7.80
2011,09,26,12,30,8.80
2011,09,26,12,31,10.40
2011,09,26,12,32,6.80
2011,09,26,12,33,4.40
2011,09,26,12,34,6.50
2011,09,26,12,35,10.60
2011,09,26,12,36,7.10
2011,09,26,12,37,6.80
2011,09,26,12,38,9.30
2011,09,26,12,39,6.90
2011,09,26,12,40,7.60
2011,09,26,12,41,9.80
2011,09,26,12,42,8.00
2011,09,26,12,43,7.00
2011,09,26,12,44,7.40
2011,09,26,12,45,4.70
2011,09,26,12,46,1.40
2011,09,26,12,47,4.00
2011,09,26,12,48,7.20
2011,09,26,12,49,8.20
2011,09,26,12,50,6.40
2011,09,26,12,51,4.90
2011,09,26,12,52,10.90
2011,09,26,12,53,8.40
2011,09,26,12,54,6.70
2011,09,26,12,55,6.10
2011,09,26,12,56,6.50
2011,09,26,12,57,5.10
2011,09,26,12,58,9.30
2011,09,26,12,59,6.90
2011,09,26,13,00,3.10
2011,09,26,13,01,5.80
2011,09,26,13,02,2.60
2011,09,26,13,03,6.60
2011,09,26,13,04,3.70
2011,09,26,13,05,4.20
2011,09,26,13,06,3.60
2011,09,26,13,07,2.10
2011,09,26,13,08,7.20
2011,09,26,13,09,4.80
2011,09,26,13,10,3.60
2011,09,26,13,11,1.90
2011,09,26,13,12,5.70
2011,09,26,13,13,4.30
2011,09,26,13,14,3.00
2011,09,26,13,15,4.30
2011,09,26,13,16,5.50
2011,09,26,13,17,9.00
2011,09,26,13,18,7.10
2011,09,26,13,19,11.40
2011,09,26,13,20,11.10
2011,09,26,13,21,8.90
2011,09,26,13,22,7.60
2011,09,26,13,23,4.70
2011,09,26,13,24,6.80
2011,09,26,13,25,5.70
2011,09,26,13,26,5.60
2011,09,26,13,27,4.70
2011,09,26,13,28,6.60
2011,09,26,13,29,7.60
2011,09,26,13,30,4.00
2011,09,26,13,31,10.30
2011,09,26,13,32,8.50
2011,09,26,13,33,6.80
2011,09,26,13,34,4.40
2011,09,26,13,35,2.00
2011,09,26,13,36,16.50
2011,09,26,13,37,7.20
2011,09,26,13,38,9.10
2011,09,26,13,39,4.10
2011,09,26,13,40,6.20
2011,09,26,13,41,5.30
2011,09,26,13,42,6.30
2011,09,26,13,43,10.20
2011,09,26,13,44,5.90
2011,09,26,13,45,11.90
2011,09,26,13,46,5.60
2011,09,26,13,47,7.40
2011,09,26,13,48,9.60
2011,09,26,13,49,3.20
2011,09,26,13,50,8.40
2011,09,26,13,51,6.80
2011,09,26,13,52,6.70
2011,09,26,13,53,7.50
2011,09,26,13,54,6.10
2011,09,26,13,55,5.30
2011,09,26,13,56,5.20
2011,09,26,13,57,8.10
2011,09,26,13,58,4.10
2011,09,26,13,59,3.60
2011,09,26,14,00,4.80
2011,09,26,14,01,5.30
2011,09,26,14,02,3.70
2011,09,26,14,03,7.30
2011,09,26,14,04,8.40
2011,09,26,14,05,9.10
2011,09,26,14,06,9.30
2011,09,26,14,07,9.90
2011,09,26,14,08,5.50
2011,09,26,14,09,3.80
2011,09,26,14,10,4.30
2011,09,26,14,11,10.70
2011,09,26,14,12,5.70
2011,09,26,14,13,6.30
2011,09,26,14,14,4.10
2011,09,26,14,15,4.90
2011,09,26,14,16,3.60
2011,09,26,14,17,2.70
2011,09,26,14,18,3.90
2011,09,26,14,19,4.50
2011,09,26,14,20,3.50
2011,09,26,14,21,0.90
2011,09,26,14,22,2.10
2011,09,26,14,23,3.50
2011,09,26,14,24,6.30
2011,09,26,14,25,6.00
2011,09,26,14,26,5.20
2011,09,26,14,27,8.20
2011,09,26,14,28,6.80
2011,09,26,14,29,6.80
2011,09,26,14,30,6.20
2011,09,26,14,31,5.10
2011,09,26,14,32,5.40
2011,09,26,14,33,4.80
2011,09,26,14,34,3.50
2011,09,26,14,35,5.70
2011,09,26,14,36,4.80
2011,09,26,14,37,7.30
2011,09,26,14,38,2.70
2011,09,26,14,39,2.90
2011,09,26,14,40,3.60
2011,09,26,14,41,6.30
2011,09,26,14,42,4.90
2011,09,26,14,43,8.20
2011,09,26,14,44,10.20
2011,09,26,14,45,7.60
2011,09,26,14,46,3.60
2011,09,26,14,47,4.30
2011,09,26,14,48,11.90
2011,09,26,14,49,3.50
2011,09,26,14,50,8.80
2011,09,26,14,51,8.30
2011,09,26,14,52,7.60
2011,09,26,14,53,8.20
2011,09,26,14,54,8.20
2011,09,26,14,55,10.00
2011,09,26,14,56,9.10
2011,09,26,14,57,5.40
2011,09,26,14,58,9.70
2011,09,26,14,59,7.80
2011,09,26,15,00,7.10
2011,09,26,15,01,7.70
2011,09,26,15,02,7.80
2011,09,26,15,03,5.80
2011,09,26,15,04,17.50
2011,09,26,15,05,7.00
2011,09,26,15,06,7.90
2011,09,26,15,07,5.50
2011,09,26,15,08,7.80
2011,09,26,15,09,10.70
2011,09,26,15,10,8.90
2011,09,26,15,11,7.30
2011,09,26,15,12,7.00
2011,09,26,15,13,9.30
2011,09,26,15,14,9.10
2011,09,26,15,15,9.20
2011,09,26,15,16,6.50
2011,09,26,15,17,7.40
2011,09,26,15,18,5.90
2011,09,26,15,19,9.50
2011,09,26,15,20,8.90
2011,09,26,15,21,6.40
2011,09,26,15,22,5.20
2011,09,26,15,23,14.60
2011,09,26,15,24,13.90
2011,09,26,15,25,5.60
2011,09,26,15,26,8.20
2011,09,26,15,27,5.80
2011,09,26,15,28,4.80
2011,09,26,15,29,10.10
2011,09,26,15,30,7.00
2011,09,26,15,31,5.90
2011,09,26,15,32,6.40
2011,09,26,15,33,8.50
2011,09,26,15,34,10.00
2011,09,26,15,35,8.80
2011,09,26,15,36,3.60
2011,09,26,15,37,5.20
2011,09,26,15,38,7.70
2011,09,26,15,39,11.80
2011,09,26,15,40,11.10
2011,09,26,15,41,8.50
2011,09,26,15,42,7.60
2011,09,26,15,43,2.10
2011,09,26,15,44,9.70
2011,09,26,15,45,6.80
2011,09,26,15,46,5.60
2011,09,26,15,47,4.80
2011,09,26,15,48,6.80
2011,09,26,15,49,4.10
2011,09,26,15,50,8.50
2011,09,26,15,51,5.40
2011,09,26,15,52,12.50
2011,09,26,15,53,13.80
2011,09,26,15,54,9.40
2011,09,26,15,55,15.70
2011,09,26,15,56,11.40
2011,09,26,15,57,8.10
2011,09,26,15,58,9.20
2011,09,26,15,59,10.50
2011,09,26,16,00,6.00
2011,09,26,16,01,12.40
2011,09,26,16,02,6.80
2011,09,26,16,03,5.50
2011,09,26,16,04,10.10
2011,09,26,16,05,4.90
2011,09,26,16,06,6.20
2011,09,26,16,07,7.00
2011,09,26,16,08,4.60
2011,09,26,16,09,9.80
2011,09,26,16,10,7.20
2011,09,26,16,11,9.30
2011,09,26,16,12,12.20
2011,09,26,16,13,7.30
2011,09,26,16,14,5.70
2011,09,26,16,15,3.70
2011,09,26,16,16,6.00
2011,09,26,16,17,8.10
2011,09,26,16,18,1.50
2011,09,26,16,19,4.10
2011,09,26,16,20,4.90
2011,09,26,16,21,8.70
2011,09,26,16,22,4.00
2011,09,26,16,23,2.50
2011,09,26,16,24,4.00
2011,09,26,16,25,5.00
2011,09,26,16,26,4.10
2011,09,26,16,27,4.30
2011,09,26,16,28,2.20
2011,09,26,16,29,2.80
2011,09,26,16,30,5.40
2011,09,26,16,31,1.90
2011,09,26,16,32,4.70
2011,09,26,16,33,2.90
2011,09,26,16,34,5.70
2011,09,26,16,35,3.60
2011,09,26,16,36,5.00
2011,09,26,16,37,3.60
2011,09,26,16,38,2.60
2011,09,26,16,39,1.50
2011,09,26,16,40,4.70
2011,09,26,16,41,6.40
2011,09,26,16,42,5.30
2011,09,26,16,43,3.70
2011,09,26,16,44,2.30
2011,09,26,16,45,2.60
2011,09,26,16,46,2.20
2011,09,26,16,47,5.30
2011,09,26,16,48,1.80
2011,09,26,16,49,3.80
2011,09,26,16,50,6.80
2011,09,26,16,51,4.60
2011,09,26,16,52,4.80
2011,09,26,16,53,2.70
2011,09,26,16,54,2.10
2011,09,26,16,55,2.30
2011,09,26,16,56,1.00
2011,09,26,16,57,3.60
2011,09,26,16,58,6.00
2011,09,26,16,59,3.10
2011,09,26,17,00,4.70
2011,09,26,17,01,0.70
2011,09,26,17,02,0.20
2011,09,26,17,03,0.00
2011,09,26,17,04,3.70
2011,09,26,17,05,3.30
2011,09,26,17,06,4.10
2011,09,26,17,07,5.50
2011,09,26,17,08,2.50
2011,09,26,17,09,3.80
2011,09,26,17,10,3.10
2011,09,26,17,11,2.50
2011,09,26,17,12,3.20
2011,09,26,17,13,3.20
2011,09,26,17,14,3.20
2011,09,26,17,15,0.80
2011,09,26,17,16,0.60
2011,09,26,17,17,0.40
2011,09,26,17,18,1.40
2011,09,26,17,19,0.80
2011,09,26,17,20,1.00
2011,09,26,17,21,0.10
2011,09,26,17,22,0.00
2011,09,26,17,23,1.40
2011,09,26,17,24,0.40
2011,09,26,17,25,3.90
2011,09,26,17,26,0.50
2011,09,26,17,27,1.50
2011,09,26,17,28,0.40
2011,09,26,17,29,0.80
2011,09,26,17,30,2.50
2011,09,26,17,31,1.80
2011,09,26,17,32,0.60
2011,09,26,17,33,0.40
2011,09,26,17,34,0.00
2011,09,26,17,35,2.20
2011,09,26,17,36,2.70
2011,09,26,17,37,0.40
2011,09,26,17,38,1.80
2011,09,26,17,39,5.30
2011,09,26,17,40,5.10
2011,09,26,17,41,0.60
2011,09,26,17,42,0.80
2011,09,26,17,43,0.60
2011,09,26,17,44,0.10
2011,09,26,17,45,1.00
2011,09,26,17,46,0.20
2011,09,26,17,47,0.80
2011,09,26,17,48,1.90
2011,09,26,17,49,1.50
2011,09,26,17,50,0.30
2011,09,26,17,51,1.10
2011,09,26,17,52,2.30
2011,09,26,17,53,0.20
2011,09,26,17,54,1.40
2011,09,26,17,55,3.60
2011,09,26,17,56,1.40
2011,09,26,17,57,0.60
2011,09,26,17,58,1.50
2011,09,26,17,59,3.40
2011,09,26,18,00,0.60
2011,09,26,18,01,2.30
2011,09,26,18,02,0.10
2011,09,26,18,03,0.00
2011,09,26,18,04,0.10
2011,09,26,18,05,0.00